Location: Kellogg
(38.0159°N, 90.0546°W)
Time: 23:03:22
(UTC+00:00)

ACS3 Solar Sail - Pass Details

Date: 21 August 2024
Orbit: 980 x 1030 km, 97.4° (Epoch: 08 September)

Event Time Altitude Azimuth Distance (km) Brightness Sun altitude
Exits shadow 01:36:36 12° 120° (ESE) 2,621 3.4 -10.2°
Maximum altitude 01:41:15 28° 67° (ENE) 1,806 2.9 -11.0°
Drops below altitude 10° 01:46:33 10° 11° (N) 2,838 4.4 -12.0°
Sets 01:49:25 0° 0° (N) 3,800 5.3 -12.5°
